Theta_e
289 289 289 289 289 289 289 290 291 290 289 289 289 289 289 287 287 287 286 285 285 285
288 288 287 288 289 289 290 291 291 290 289 289 289 289 288 287 286 287 286 285 286 286
287 287 287 287 287 288 289 290 290 289 288 288 288 288 288 286 286 286 286 286 285 286
285 285 285 285 286 286 288 288 289 289 288 287 287 288 287 286 286 286 285 285 285 285
284 284 283 284 284 285 286 287 287 288 288 288 288 287 287 286 287 285 285 285 284 284
282 282 282 283 284 284 284 285 286 287 287 287 287 287 287 287 286 286 285 284 284 284
280 281 282 283 283 283 283 283 284 284 285 286 287 286 286 286 286 285 285 285 284 284
280 280 281 282 282 282 282 282 282 283 283 284 285 286 285 285 285 284 284 283 284 284
276 278 278 280 281 281 281 281 281 281 282 282 284 287 289 288 284 284 283 282 282 283
275 276 277 278 279 279 280 280 279 280 280 281 282 286 288 289 286 283 282 281 280 279
274 274 276 277 278 279 279 278 278 278 279 280 281 286 287 288 285 282 281 281 280 279
273 273 273 274 277 278 278 278 278 279 278 278 280 285 286 287 286 284 284 281 280 279
274 273 272 273 276 278 278 278 279 279 279 278 278 283 286 286 285 283 282 282 280 281
274 273 272 273 276 276 276 276 276 279 279 278 279 282 286 286 285 283 281 280 279 279
Wind_Speed
4 3 3 4 4 4 3 4 5 6 6 7 6 6 5 4 4 5 5 6 5 4
5 5 5 6 5 4 5 5 6 6 6 6 6 6 6 5 6 5 5 5 5 5
6 5 6 5 6 6 6 6 6 7 6 7 7 6 6 6 6 6 5 5 6 6
6 6 6 6 6 6 6 7 7 7 7 8 8 7 7 8 7 8 7 7 7 8
6 6 6 6 7 6 7 8 8 9 9 9 9 9 10 10 9 9 10 9 8 9
6 6 7 7 7 6 8 9 9 9 9 10 11 10 11 11 11 10 10 8 8 8
7 7 7 8 8 8 8 9 9 9 10 11 12 11 12 11 11 10 9 9 9 9
8 7 8 8 8 9 8 9 9 10 11 11 11 10 12 11 11 11 10 8 8 9
7 8 8 9 10 9 9 9 9 10 10 12 9 19 20 15 10 10 10 10 9 8
7 8 9 8 9 10 11 10 11 11 11 12 13 21 22 21 10 10 10 9 8 6
7 8 9 8 10 12 10 10 11 12 12 12 12 22 21 21 10 9 8 9 9 8
8 8 7 7 9 11 10 11 11 12 13 12 14 20 21 17 10 10 12 9 9 9
7 7 7 7 10 11 11 12 11 15 13 13 15 20 21 16 8 10 10 11 10 15
8 8 7 7 8 11 12 12 14 16 16 14 13 14 20 20 10 8 9 10 7 6
Wind_Direction
350 320 295 283 279 271 263 262 263 242 224 220 220 223 223 226 233 231 230 231 231 236
354 349 327 312 296 283 281 274 268 249 236 220 222 223 221 225 232 235 227 229 231 234
329 332 322 321 316 306 290 278 277 267 245 233 228 224 220 232 229 230 227 232 237 240
320 324 322 315 310 307 300 293 277 260 246 238 232 224 222 231 229 230 234 229 233 241
313 318 313 300 296 300 300 300 287 280 260 246 234 227 223 234 236 225 234 234 231 242
296 297 290 289 291 295 299 297 297 296 281 264 243 230 228 228 230 228 230 224 226 237
292 288 288 288 287 291 294 293 294 289 285 278 264 244 235 230 230 230 228 224 224 231
289 288 288 287 283 280 282 284 285 287 286 282 268 253 242 231 229 226 230 222 225 227
287 290 288 289 288 282 279 276 278 282 279 281 274 267 256 234 227 227 225 229 229 227
272 278 279 279 285 283 282 281 278 281 281 276 274 277 269 249 229 223 223 219 224 231
264 265 272 277 281 283 281 272 278 281 277 276 276 278 274 260 235 215 217 220 224 225
247 254 260 267 282 288 285 285 279 276 276 273 275 275 271 262 238 226 237 236 233 224
248 245 251 257 284 290 281 281 290 284 274 266 270 269 270 255 244 237 241 245 239 228
251 245 245 258 278 289 284 283 288 282 277 272 261 261 262 257 244 223 239 244 241 221